Location: Bullenkuhlen
(53.7689°N, 9.7495°E)
Time: 05:42:12
(UTC+00:00)

Terra - Pass Details

Date: 09 April 2020
Orbit: 701 x 703 km, 98.2° (Epoch: 29 May)

Event Time Altitude Azimuth Distance (km) Brightness Sun altitude
Exits shadow 18:50:34 - 86° (E) 2,661 4.2 -6.2°
Reaches altitude 10° 18:53:09 10° 60° (ENE) 2,182 4.0 -6.5°
Maximum altitude 18:54:19 11° 46° (NE) 2,124 4.1 -6.7°
Drops below altitude 10° 18:55:30 10° 32° (NNE) 2,185 4.3 -6.9°
Sets 18:59:37 0° 357° (N) 3,110 5.6 -7.4°
